Location: Balaclava NSW 2575, Australia
(34.4510°S, 150.4953°E)
Time: 19:54:41
(UTC+10:00)

Transit 4A - Visible Passes

Search period start: 15 June 2021 00:00
Search period end: 25 June 2021 00:00
Orbit: 872 x 973 km, 66.8° (Epoch: 14 June)

Date Brightness Start Highest point End Pass type
(mag) Time Alt. Az. Time Alt. Az. Time Alt. Az.
15 Jun 10.1 06:27:42 10° S 06:32:16 20° SE 06:36:46 10° E visible
16 Jun 9.7 06:36:26 10° S 06:41:53 28° SE 06:47:16 10° ENE visible
18 Jun 10.5 05:11:47 10° SSE 05:13:07 11° SE 05:14:27 10° SE visible
19 Jun 10.3 05:19:12 10° S 05:22:56 16° SE 05:26:37 10° E visible
20 Jun 10.0 05:27:42 10° S 05:32:37 22° SE 05:37:28 10° E visible
21 Jun 9.5 05:36:30 10° S 05:42:12 32° SE 05:47:48 10° ENE visible
22 Jun 8.9 05:45:30 10° SSW 05:51:42 47° ESE 05:57:45 10° NE visible
23 Jun 10.5 04:11:02 10° SSE 04:13:33 12° SE 04:16:01 10° ESE visible
23 Jun 8.3 05:54:39 10° SSW 06:01:05 70° ESE 06:07:22 10° NE visible
23 Jun 10.1 19:12:42 10° NNE 19:12:44 10° NNE 19:12:44 10° NNE visible
24 Jun 10.2 04:19:34 11° S 04:23:18 18° SE 04:27:28 10° E visible
24 Jun 8.0 06:03:57 10° SSW 06:10:24 79° WNW 06:16:40 10° NNE visible
24 Jun 9.6 19:21:03 10° N 19:22:50 19° NNE 19:22:50 19° NNE visible
